This is the latest recevied weather packets stored in our database for station/object DW9280. If no packets are shown the sender has not sent any weather packets the latest 10 day(s).
| Time | Temp. | Humidity | Pressure | Rain* | Wind** | Luminosity | Snow |
|---|---|---|---|---|---|---|---|
| 1788094747 | 19.44° C | 91% | 1010.6 hPa | 0 mm | - | 313 W/m² | - |
| 1788094444 | 19.44° C | 91% | 1010.6 hPa | 0 mm | - | 346 W/m² | - |
| 1788094145 | 19.44° C | 90% | 1010.5 hPa | 0 mm | - | 346 W/m² | - |
| 1788093845 | 20° C | 90% | 1010.5 hPa | 0 mm | - | 290 W/m² | - |
| 1788093545 | 20° C | 90% | 1010.5 hPa | 0 mm | - | 120 W/m² | - |
| 1788093244 | 20° C | 90% | 1010.4 hPa | 0 mm | - | 251 W/m² | - |
| 1788092942 | 20° C | 90% | 1010.4 hPa | 0 mm | - | 225 W/m² | - |
| 1788092644 | 20° C | 90% | 1010.3 hPa | 0 mm | - | 209 W/m² | - |
| 1788092385 | 20° C | 90% | 1010.3 hPa | 0 mm | - | 190 W/m² | - |
| 1788092043 | 20° C | 90% | 1010.2 hPa | 0 mm | - | 148 W/m² | - |
| 1788091743 | 20° C | 92% | 1010.1 hPa | 0 mm | - | 148 W/m² | - |
| 1788091479 | 20° C | 93% | 1010.1 hPa | 0 mm | - | 260 W/m² | - |
| 1788091142 | 20° C | 94% | 1010 hPa | 0 mm | - | 343 W/m² | - |
| 1788090842 | 19.44° C | 94% | 1010 hPa | 0 mm | - | 394 W/m² | - |
| 1788090543 | 19.44° C | 95% | 1009.9 hPa | 0 mm | - | 327 W/m² | - |
| 1788090242 | 19.44° C | 96% | 1009.8 hPa | 0 mm | - | 288 W/m² | - |
| 1788089942 | 19.44° C | 97% | 1009.9 hPa | 0.25 mm | - | 396 W/m² | - |
| 1788089642 | 19.44° C | 97% | 1009.8 hPa | 0.51 mm | - | 492 W/m² | - |
| 1788089343 | 19.44° C | 97% | 1009.7 hPa | 1.02 mm | - | 777 W/m² | - |
| 1788089042 | 19.44° C | 98% | 1009.6 hPa | 1.52 mm | - | 325 W/m² | - |
| 1788088741 | 19.44° C | 97% | 1009.6 hPa | 2.03 mm | - | 330 W/m² | - |
| 1788088442 | 19.44° C | 98% | 1009.4 hPa | 2.79 mm | - | 817 W/m² | - |
| 1788088143 | 18.89° C | 98% | 1009.5 hPa | 4.32 mm | - | 399 W/m² | - |
| 1788087880 | 18.89° C | 97% | 1009.4 hPa | 6.1 mm | - | 355 W/m² | - |
| 1788087542 | 18.33° C | 97% | 1009.3 hPa | 7.62 mm | - | 313 W/m² | - |
* Rain latest hour (hover to see other rain measurements)
** Current wind speed in m/s (hover to see current wind gust speed)